SCP
-0 -0 -0 -0 -0 -0 -0 -0 0 0 0 -0 -0 -0 -0 0 0 0 0 -0 -0 0 0 0 0 0 0 0 0 0 0 0 0 0 0 0 0 0 0 0 0 0 0 0 0 0 0
-0 -0 0 0 0 0 0 0 0 0 0 0 0 0 0 0 0 0 0 0 0 0 0 0 0 0 0 0 0 0 0 0 0 0 0 0 0 0 0 0 0 0 0 0 0 0 0
-0 -0 -0 -0 -0 0 0 0 0 0 0 0 0 0 0 0 0 0 0 0 0 0 0 0 0 0 0 0 0 0 0 0 0 0 0 0 0 0 0 0 0 0 0 0 0 0 0
-0 -0 -0 -0 -0 -0 -0 0 0 0 0 0 0 0 0 0 0 0 0 0 0 0 0 0 0 0 0 0 0 0 0 0 0 0 0 0 0 0 0 0 0 0 0 0 0 0 0
-0 -0 -0 -0 -0 -0 -0 -0 -0 0 0 0 0 0 0 0 0 0 0 0 0 0 0 0 0 0 0 0 0 0 0 0 0 0 0 0 0 0 0 0 0 0 0 0 0 0 0
-0 -0 -0 -0 -0 -0 -0 -0 -0 -0 -0 0 0 0 0 0 0 0 0 0 0 0 0 0 0 0 0 0 0 0 0 0 0 0 0 0 0 0 0 0 0 0 0 0 0 0 0
0 -0 -0 -0 -0 -0 -0 -0 -0 -0 0 -0 0 0 0 0 0 0 0 0 0 0 0 0 0 0 0 0 0 0 0 0 0 0 0 0 0 0 0 0 0 0 0 0 0 0 0
0 0 0 0 0 0 0 0 0 0 0 0 0 0 0 0 0 0 -0 0 0 0 0 0 0 0 0 0 0 0 0 0 0 0 0 0 0 0 0 0 0 0 0 0 0 0 0
0 0 0 0 0 0 0 0 0 0 0 0 0 0 0 0 0 0 0 0 0 0 0 0 0 0 0 0 0 0 0 0 0 0 0 0 0 0 0 0 0 0 0 0 0 0 0
0 0 0 0 0 0 0 0 0 0 0 0 0 0 0 0 0 0 0 0 0 0 0 0 0 0 0 0 0 0 0 0 0 0 0 0 0 0 0 0 0 0 0 0 0 0 0
0 0 0 0 0 0 0 0 0 0 0 0 0 0 0 0 0 0 0 0 0 0 0 0 0 0 0 0 0 0 0 0 0 0 0 0 0 0 0 0 0 0 0 0 0 0 0
0 0 0 0 0 0 0 0 0 0 0 0 0 0 0 0 0 0 0 0 0 0 0 0 0 0 0 0 0 0 0 0 0 0 0 0 0 0 0 0 0 0 0 0 0 0 0
0 0 0 0 0 0 0 0 0 0 0 0 0 0 0 0 0 0 0 0 0 0 0 0 0 0 0 0 0 0 0 0 0 0 0 0 0 0 0 0 0 0 0 0 0 0 0
0 0 0 0 0 0 0 0 0 0 0 0 0 0 0 0 0 0 0 0 0 0 0 0 0 0 0 0 0 0 0 0 0 0 0 0 0 0 0 0 0 0 0 0 0 0 0
0 0 0 0 0 0 0 0 0 0 0 0 0 0 0 0 0 0 0 0 0 0 0 0 0 0 0 0 0 0 0 0 0 0 0 0 0 0 0 0 0 0 0 0 0 0 0
0 0 0 0 0 0 0 0 0 0 0 0 0 0 0 0 0 0 0 0 0 0 0 0 0 0 0 0 0 0 0 0 0 0 0 0 0 0 0 0 0 0 0 0 0 0 0
0 0 0 0 0 0 0 0 0 0 0 0 0 0 0 0 0 0 0 0 0 0 0 0 0 0 0 0 0 0 0 0 0 0 0 0 0 0 0 0 0 0 0 0 0 0 0
0 0 0 0 0 0 0 0 0 0 0 0 0 0 0 0 0 0 0 0 0 0 0 0 0 0 0 0 0 0 0 0 0 0 0 0 0 0 0 0 0 0 0 0 0 0 0
0 0 0 0 0 0 0 0 0 0 0 0 0 0 0 0 0 0 0 0 0 0 0 0 0 0 0 0 0 0 0 0 0 0 0 0 0 0 0 0 0 0 0 0 0 0 0
0 0 0 0 0 0 0 0 0 0 0 0 0 1 0 0 0 0 0 0 0 0 0 0 0 0 0 0 0 0 0 0 0 0 0 0 0 0 0 0 0 0 0 0 0 0 0
0 0 0 0 0 0 0 0 0 0 0 0 0 0 0 0 0 0 0 0 0 0 0 0 0 0 0 0 0 0 0 0 0 0 0 0 0 0 0 0 0 0 0 0 0 0 0
0 0 0 0 0 0 0 0 0 0 0 0 0 0 0 0 0 0 0 0 0 0 0 0 0 0 0 0 0 0 0 0 0 0 0 0 0 0 0 0 0 0 0 0 0 0 0
0 0 0 0 0 0 0 0 0 0 0 0 0 0 0 0 0 0 0 0 0 0 0 0 0 0 0 0 -0 0 0 0 0 0 0 0 0 0 0 0 0 0 0 0 0 0 0
0 0 0 0 0 0 0 0 0 0 0 0 0 0 0 0 0 0 0 0 0 0 0 0 0 0 0 0 0 0 0 0 0 0 0 0 0 0 0 0 0 0 0 0 0 0 0
0 0 0 0 0 0 0 0 0 0 0 0 0 0 0 0 0 0 0 0 0 0 0 0 0 0 0 0 0 -0 0 0 0 0 0 0 0 0 0 0 0 0 0 0 0 0 0
0 0 0 0 0 0 0 0 0 0 0 0 0 0 0 0 0 0 0 0 0 0 0 0 0 0 0 0 0 -0 0 0 0 0 0 0 0 0 0 0 0 0 0 0 0 0 0
0 0 0 0 0 0 0 0 0 0 0 0 0 0 0 0 0 0 0 0 0 0 0 0 0 0 0 0 0 0 0 0 0 0 0 0 0 0 0 0 0 0 0 0 0 0 0
0 0 0 -0 0 0 0 0 0 0 0 0 0 0 0 0 0 0 0 0 0 0 0 0 0 0 0 0 -0 -0 0 0 0 0 0 0 0 0 0 0 0 0 0 0 0 0 0
0 -0 -0 0 0 0 0 0 0 0 0 0 0 0 0 0 0 0 0 0 0 0 0 0 0 0 0 0 0 -0 0 0 0 0 0 0 0 0 0 0 0 0 0 0 0 0 0
Wind_Speed_500mb
20 22 24 27 29 31 34 36 37 36 34 31 30 29 28 27 26 29 31 28 23 24 24 22 18 16 14 12 17 14 10 8 7 8 6 10 8 8 8 10 7 5 10 6 8 13 19
23 23 20 21 23 27 29 31 33 35 37 38 38 36 33 32 30 29 28 31 32 25 21 23 22 16 13 13 16 13 13 10 9 9 11 10 9 10 15 6 1 7 14 16 11 15 14
25 26 29 30 28 27 27 27 26 28 31 33 36 39 40 39 37 34 32 30 29 32 26 21 21 19 20 25 17 13 12 10 9 9 11 13 16 5 13 11 12 20 10 8 13 16 10
23 25 27 27 29 30 30 28 28 29 28 28 28 30 35 39 41 43 41 35 32 30 29 24 21 19 15 19 18 15 10 9 8 10 13 16 16 16 7 24 9 7 5 10 16 23 7
21 23 26 29 32 31 31 32 31 29 31 33 33 33 32 32 35 38 40 42 38 32 28 25 21 15 14 14 16 15 11 8 9 12 16 21 18 9 12 11 7 9 11 19 8 29 12
23 25 25 28 29 29 28 29 32 34 32 32 33 34 34 37 38 38 36 37 36 29 27 24 24 13 22 12 13 14 12 13 9 15 15 11 7 9 8 16 19 16 13 12 16 20 23
28 28 29 30 27 27 29 30 31 30 31 35 36 37 36 36 38 42 40 33 13 7 8 17 19 19 14 15 13 13 15 15 14 10 13 6 14 24 37 35 10 6 14 15 8 12 20
31 32 29 28 27 28 28 30 30 31 31 30 32 36 37 37 38 37 33 15 13 15 21 33 44 48 36 18 11 20 19 16 14 17 11 8 27 23 4 19 18 16 19 23 4 10 19
35 36 36 32 35 33 35 35 30 31 31 33 31 35 35 33 31 21 29 23 22 23 12 15 16 12 13 22 14 15 25 14 13 16 24 27 1 8 18 18 24 26 31 22 12 10 18
38 39 39 39 39 40 41 39 35 32 34 34 35 32 33 33 12 24 13 24 22 20 9 7 5 2 4 5 10 14 23 10 9 17 13 18 8 14 17 22 26 27 23 17 15 11 15
45 45 44 43 43 43 41 38 33 34 36 35 37 36 33 30 21 19 17 14 13 8 11 5 4 6 10 10 8 4 14 8 12 13 11 6 14 17 18 13 30 4 9 15 12 20 9
47 47 47 46 45 44 44 36 34 35 35 36 39 38 35 30 26 15 16 9 3 2 14 5 2 4 6 9 8 2 4 7 2 7 10 9 2 8 5 5 14 24 16 10 5 7 14
51 49 49 48 47 48 47 46 41 37 38 33 32 36 35 31 24 22 11 2 3 10 3 1 3 3 5 9 10 15 12 15 12 10 20 7 15 4 6 10 8 14 20 8 10 10 16
44 46 46 46 45 44 43 45 44 41 44 42 42 40 35 32 30 26 7 2 14 8 15 2 1 3 12 15 11 14 11 16 28 11 2 14 13 27 27 15 14 36 21 12 15 13 4
36 37 39 42 42 41 40 40 41 40 37 32 35 41 46 39 27 20 7 6 13 12 9 5 4 11 12 9 6 14 20 13 18 40 24 17 14 5 5 3 6 15 21 6 9 2 8
36 33 32 33 37 38 37 36 36 37 35 35 34 31 27 33 24 19 6 14 8 9 7 3 16 11 20 5 9 16 21 10 15 37 48 10 16 9 9 6 7 11 6 9 9 11 16
40 37 34 34 36 37 36 35 34 33 33 30 27 15 18 22 17 15 9 12 11 33 23 7 16 20 27 12 17 11 12 6 16 12 28 15 14 8 6 25 37 14 14 13 6 8 9
48 45 42 40 35 35 38 34 31 29 28 20 14 10 15 21 8 5 4 10 6 10 15 11 12 25 35 31 25 26 26 20 6 12 19 20 9 25 28 2 9 23 26 31 15 17 12
49 51 48 44 36 32 33 31 25 22 27 15 13 15 19 26 10 12 8 9 11 3 15 4 8 21 13 17 14 38 36 3 5 5 6 6 15 19 12 6 4 16 26 20 25 6 37
40 39 41 40 37 35 34 31 27 20 24 21 13 5 8 23 11 11 11 7 8 13 17 19 13 14 10 15 29 17 18 10 5 10 15 10 12 28 34 26 5 16 25 40 31 17 30
49 48 46 45 40 39 37 33 29 23 19 26 22 12 14 8 12 14 8 4 9 13 17 14 7 22 24 12 19 38 42 45 36 19 4 6 19 18 12 10 9 10 13 38 50 61 29
48 46 43 45 46 42 37 32 30 26 21 30 16 11 12 11 10 15 14 9 15 18 11 10 21 32 22 19 27 38 29 11 20 6 14 13 18 17 30 11 12 14 19 19 39 40 40
49 51 50 45 42 41 40 35 33 32 28 23 33 43 24 14 9 7 10 17 14 11 19 36 28 19 32 35 32 49 58 45 22 14 21 15 11 12 31 28 11 23 38 36 21 18 29
45 47 48 48 46 40 39 38 34 37 41 40 37 27 18 17 19 24 23 26 19 28 28 27 30 18 12 26 29 30 30 31 32 27 23 15 17 8 15 9 15 7 4 7 15 9 20
47 49 49 50 47 44 40 41 37 36 46 47 45 47 16 5 12 14 26 29 30 26 25 31 37 31 28 12 6 10 6 7 16 9 11 5 12 8 8 14 15 11 6 6 9 7 4
47 47 46 46 47 45 44 43 39 39 44 49 56 49 37 7 14 32 19 17 10 10 11 13 22 18 9 4 6 7 8 8 8 5 1 8 2 6 7 11 13 7 5 4 4 10 4
49 47 44 46 48 45 42 42 41 41 42 42 57 56 46 15 19 23 13 6 7 6 7 6 5 3 10 5 6 7 9 4 9 6 7 7 5 19 13 11 9 6 9 2 8 4 5
45 43 42 48 45 42 41 44 44 44 38 45 47 47 52 21 29 28 23 18 17 8 6 2 5 4 6 7 5 4 5 4 8 1 4 7 9 6 7 6 13 6 7 4 6 5 9
43 39 35 31 34 40 46 46 42 42 35 38 37 32 41 30 10 14 22 26 26 24 15 9 6 5 11 6 5 5 6 3 4 6 1 3 6 6 6 4 6 12 11 8 4 10 17
Wind_Direction_500mb
21 16 14 9 5 2 1 360 358 355 353 350 347 344 342 341 341 338 335 332 331 327 323 321 319 308 295 273 259 259 275 271 256 240 212 215 202 158 157 133 135 140 140 88 123 136 139
17 15 16 13 7 360 356 354 355 355 352 348 346 343 341 337 334 332 330 329 326 319 313 312 310 307 287 253 255 261 275 262 255 226 211 200 209 167 111 96 266 106 120 123 147 145 152
31 26 17 10 8 5 0 354 351 350 349 348 346 343 340 336 331 327 325 323 321 316 310 306 301 295 276 263 259 256 271 260 235 218 190 180 160 155 127 117 123 134 124 146 172 175 162
31 25 19 14 10 5 0 357 352 347 344 341 339 339 338 335 333 330 326 321 316 313 306 299 293 287 258 256 251 256 257 238 220 191 177 167 161 139 102 123 108 174 198 207 165 176 173
353 2 4 3 2 358 357 356 351 349 344 339 337 336 334 331 329 328 327 323 317 308 297 291 288 275 267 251 237 232 226 205 196 175 163 154 154 111 133 172 176 203 237 219 190 201 157
328 331 335 342 344 345 347 348 351 349 344 339 336 334 334 332 329 326 327 324 317 303 292 289 266 277 248 243 218 212 207 190 178 171 150 160 129 172 175 197 229 210 220 222 224 191 206
315 310 315 324 326 328 333 336 336 340 344 342 338 334 334 333 330 330 331 344 350 349 325 268 276 247 275 235 224 213 203 192 172 188 208 177 207 211 208 212 242 186 220 228 207 171 203
298 306 306 302 311 316 322 324 322 326 329 334 337 336 336 334 334 338 347 10 356 309 302 285 261 251 252 243 266 227 201 187 192 214 160 188 234 236 122 193 200 204 227 235 186 167 214
300 300 301 299 299 301 304 306 309 315 322 322 328 332 336 337 336 347 352 7 353 341 279 292 252 253 247 240 248 222 198 197 209 210 208 229 275 167 179 178 199 220 228 225 251 167 233
293 295 296 297 299 300 299 296 294 300 308 310 315 321 328 338 350 335 343 346 349 340 285 236 168 186 164 227 258 211 199 202 195 239 207 245 194 177 190 211 203 227 216 216 191 201 249
291 295 297 299 299 299 300 301 302 301 304 305 306 313 323 338 332 337 331 336 347 356 308 72 166 175 160 151 322 234 205 219 237 189 194 218 192 188 209 219 188 229 150 187 201 228 272
288 289 288 291 293 295 297 296 294 299 303 303 304 308 315 322 325 331 341 339 25 180 246 277 164 178 166 184 173 215 251 233 188 198 230 265 313 237 258 100 189 140 113 98 115 210 245
290 291 291 290 291 293 295 296 291 293 294 294 298 301 305 308 310 315 319 312 235 217 327 277 289 219 258 201 205 184 183 207 213 187 226 202 213 183 176 138 126 200 168 193 215 208 249
297 294 295 294 293 294 292 293 292 290 274 283 286 297 297 298 300 304 266 8 215 243 257 95 160 188 225 179 220 196 199 229 225 235 178 213 244 181 183 223 204 198 212 208 231 216 227
309 303 302 300 300 300 298 294 290 290 294 296 286 284 286 288 286 274 171 219 213 206 267 284 254 238 234 218 227 197 223 245 220 196 211 203 235 178 196 173 188 179 218 298 288 136 269
311 308 303 302 306 306 302 300 299 294 288 279 285 276 274 282 272 209 170 225 242 254 310 278 276 257 272 276 214 207 191 208 234 199 217 231 258 188 155 173 204 237 146 180 217 234 241
299 302 304 306 304 299 303 304 299 296 290 283 275 275 252 243 210 178 222 219 239 247 245 239 266 274 269 281 222 239 255 257 226 196 205 218 222 139 162 209 196 176 199 221 271 234 256
289 294 298 300 300 302 294 295 301 298 288 276 258 253 224 192 129 243 197 196 260 246 259 243 258 256 264 266 278 269 259 247 16 171 186 216 261 239 208 144 327 247 225 196 210 200 236
287 285 286 288 291 297 304 288 291 301 288 273 254 245 210 202 237 231 247 256 238 243 244 187 254 233 284 264 245 231 257 242 36 296 4 282 228 241 216 208 145 216 214 235 255 339 237
280 285 279 280 285 291 297 295 276 286 286 249 260 216 168 212 260 286 256 219 220 231 243 252 245 263 253 246 238 263 249 219 137 164 341 19 293 255 253 267 134 205 204 208 201 229 247
279 280 282 280 279 282 288 296 270 270 277 242 232 236 220 187 218 209 181 252 221 265 228 199 234 219 240 259 251 245 254 255 256 230 167 168 245 269 310 314 298 291 239 209 209 226 220
277 272 277 279 277 278 278 284 282 261 260 242 250 243 242 259 156 179 194 199 260 264 221 244 240 278 270 241 251 286 298 241 238 159 208 161 259 257 272 242 3 296 270 239 235 247 250
281 278 272 276 277 272 272 278 283 249 247 243 244 249 261 255 192 193 217 234 236 211 232 252 277 291 281 274 264 276 275 264 248 191 185 182 212 214 254 252 300 277 245 231 216 228 229
281 285 273 271 275 272 269 268 274 252 240 249 245 250 241 251 237 238 251 231 246 264 258 268 279 264 284 301 304 285 273 261 230 217 192 187 196 201 263 139 224 281 47 9 247 270 233
281 282 279 268 273 271 268 261 271 270 237 246 247 241 243 257 230 235 244 248 274 278 266 269 268 259 280 295 288 292 246 254 235 222 190 243 182 206 229 216 307 247 178 173 190 240 326
286 281 279 270 269 272 267 256 265 268 245 249 247 246 240 248 238 261 266 232 253 243 255 225 261 265 237 247 240 248 257 287 235 224 216 180 173 218 162 248 235 66 104 131 220 257 141
282 284 274 272 269 266 259 257 264 264 255 250 249 240 227 232 241 231 240 232 240 272 282 255 241 216 203 223 245 256 252 318 271 257 161 172 190 213 207 236 282 76 106 100 219 10 141
278 287 279 276 264 260 253 259 267 268 256 258 259 229 217 225 243 232 227 222 250 248 257 307 280 193 198 232 251 259 277 348 292 8 208 214 188 195 169 212 248 15 109 262 345 24 121
278 284 283 272 261 259 260 263 262 262 248 242 241 240 235 242 245 236 239 246 250 245 254 237 283 202 225 242 240 282 271 236 273 281 357 294 356 325 300 27 74 40 30 13 12 128 126
Wind_Speed_850mb
20 22 24 27 29 31 34 36 37 36 34 31 30 29 28 27 26 29 31 28 23 24 24 22 18 16 14 12 17 14 10 8 7 8 6 10 8 8 8 10 7 5 10 6 8 13 19
23 23 20 21 23 27 29 31 33 35 37 38 38 36 33 32 30 29 28 31 32 25 21 23 22 16 13 13 16 13 13 10 9 9 11 10 9 10 15 6 1 7 14 16 11 15 14
25 26 29 30 28 27 27 27 26 28 31 33 36 39 40 39 37 34 32 30 29 32 26 21 21 19 20 25 17 13 12 10 9 9 11 13 16 5 13 11 12 20 10 8 13 16 10
23 25 27 27 29 30 30 28 28 29 28 28 28 30 35 39 41 43 41 35 32 30 29 24 21 19 15 19 18 15 10 9 8 10 13 16 16 16 7 24 9 7 5 10 16 23 7
21 23 26 29 32 31 31 32 31 29 31 33 33 33 32 32 35 38 40 42 38 32 28 25 21 15 14 14 16 15 11 8 9 12 16 21 18 9 12 11 7 9 11 19 8 29 12
23 25 25 28 29 29 28 29 32 34 32 32 33 34 34 37 38 38 36 37 36 29 27 24 24 13 22 12 13 14 12 13 9 15 15 11 7 9 8 16 19 16 13 12 16 20 23
28 28 29 30 27 27 29 30 31 30 31 35 36 37 36 36 38 42 40 33 13 7 8 17 19 19 14 15 13 13 15 15 14 10 13 6 14 24 37 35 10 6 14 15 8 12 20
31 32 29 28 27 28 28 30 30 31 31 30 32 36 37 37 38 37 33 15 13 15 21 33 44 48 36 18 11 20 19 16 14 17 11 8 27 23 4 19 18 16 19 23 4 10 19
35 36 36 32 35 33 35 35 30 31 31 33 31 35 35 33 31 21 29 23 22 23 12 15 16 12 13 22 14 15 25 14 13 16 24 27 1 8 18 18 24 26 31 22 12 10 18
38 39 39 39 39 40 41 39 35 32 34 34 35 32 33 33 12 24 13 24 22 20 9 7 5 2 4 5 10 14 23 10 9 17 13 18 8 14 17 22 26 27 23 17 15 11 15
45 45 44 43 43 43 41 38 33 34 36 35 37 36 33 30 21 19 17 14 13 8 11 5 4 6 10 10 8 4 14 8 12 13 11 6 14 17 18 13 30 4 9 15 12 20 9
47 47 47 46 45 44 44 36 34 35 35 36 39 38 35 30 26 15 16 9 3 2 14 5 2 4 6 9 8 2 4 7 2 7 10 9 2 8 5 5 14 24 16 10 5 7 14
51 49 49 48 47 48 47 46 41 37 38 33 32 36 35 31 24 22 11 2 3 10 3 1 3 3 5 9 10 15 12 15 12 10 20 7 15 4 6 10 8 14 20 8 10 10 16
44 46 46 46 45 44 43 45 44 41 44 42 42 40 35 32 30 26 7 2 14 8 15 2 1 3 12 15 11 14 11 16 28 11 2 14 13 27 27 15 14 36 21 12 15 13 4
36 37 39 42 42 41 40 40 41 40 37 32 35 41 46 39 27 20 7 6 13 12 9 5 4 11 12 9 6 14 20 13 18 40 24 17 14 5 5 3 6 15 21 6 9 2 8
36 33 32 33 37 38 37 36 36 37 35 35 34 31 27 33 24 19 6 14 8 9 7 3 16 11 20 5 9 16 21 10 15 37 48 10 16 9 9 6 7 11 6 9 9 11 16
40 37 34 34 36 37 36 35 34 33 33 30 27 15 18 22 17 15 9 12 11 33 23 7 16 20 27 12 17 11 12 6 16 12 28 15 14 8 6 25 37 14 14 13 6 8 9
48 45 42 40 35 35 38 34 31 29 28 20 14 10 15 21 8 5 4 10 6 10 15 11 12 25 35 31 25 26 26 20 6 12 19 20 9 25 28 2 9 23 26 31 15 17 12
49 51 48 44 36 32 33 31 25 22 27 15 13 15 19 26 10 12 8 9 11 3 15 4 8 21 13 17 14 38 36 3 5 5 6 6 15 19 12 6 4 16 26 20 25 6 37
40 39 41 40 37 35 34 31 27 20 24 21 13 5 8 23 11 11 11 7 8 13 17 19 13 14 10 15 29 17 18 10 5 10 15 10 12 28 34 26 5 16 25 40 31 17 30
49 48 46 45 40 39 37 33 29 23 19 26 22 12 14 8 12 14 8 4 9 13 17 14 7 22 24 12 19 38 42 45 36 19 4 6 19 18 12 10 9 10 13 38 50 61 29
48 46 43 45 46 42 37 32 30 26 21 30 16 11 12 11 10 15 14 9 15 18 11 10 21 32 22 19 27 38 29 11 20 6 14 13 18 17 30 11 12 14 19 19 39 40 40
49 51 50 45 42 41 40 35 33 32 28 23 33 43 24 14 9 7 10 17 14 11 19 36 28 19 32 35 32 49 58 45 22 14 21 15 11 12 31 28 11 23 38 36 21 18 29
45 47 48 48 46 40 39 38 34 37 41 40 37 27 18 17 19 24 23 26 19 28 28 27 30 18 12 26 29 30 30 31 32 27 23 15 17 8 15 9 15 7 4 7 15 9 20
47 49 49 50 47 44 40 41 37 36 46 47 45 47 16 5 12 14 26 29 30 26 25 31 37 31 28 12 6 10 6 7 16 9 11 5 12 8 8 14 15 11 6 6 9 7 4
47 47 46 46 47 45 44 43 39 39 44 49 56 49 37 7 14 32 19 17 10 10 11 13 22 18 9 4 6 7 8 8 8 5 1 8 2 6 7 11 13 7 5 4 4 10 4
49 47 44 46 48 45 42 42 41 41 42 42 57 56 46 15 19 23 13 6 7 6 7 6 5 3 10 5 6 7 9 4 9 6 7 7 5 19 13 11 9 6 9 2 8 4 5
45 43 42 48 45 42 41 44 44 44 38 45 47 47 52 21 29 28 23 18 17 8 6 2 5 4 6 7 5 4 5 4 8 1 4 7 9 6 7 6 13 6 7 4 6 5 9
43 39 35 31 34 40 46 46 42 42 35 38 37 32 41 30 10 14 22 26 26 24 15 9 6 5 11 6 5 5 6 3 4 6 1 3 6 6 6 4 6 12 11 8 4 10 17
Wind_Direction_850mb
21 16 14 9 5 2 1 360 358 355 353 350 347 344 342 341 341 338 335 332 331 327 323 321 319 308 295 273 259 259 275 271 256 240 212 215 202 158 157 133 135 140 140 88 123 136 139
17 15 16 13 7 360 356 354 355 355 352 348 346 343 341 337 334 332 330 329 326 319 313 312 310 307 287 253 255 261 275 262 255 226 211 200 209 167 111 96 266 106 120 123 147 145 152
31 26 17 10 8 5 0 354 351 350 349 348 346 343 340 336 331 327 325 323 321 316 310 306 301 295 276 263 259 256 271 260 235 218 190 180 160 155 127 117 123 134 124 146 172 175 162
31 25 19 14 10 5 0 357 352 347 344 341 339 339 338 335 333 330 326 321 316 313 306 299 293 287 258 256 251 256 257 238 220 191 177 167 161 139 102 123 108 174 198 207 165 176 173
353 2 4 3 2 358 357 356 351 349 344 339 337 336 334 331 329 328 327 323 317 308 297 291 288 275 267 251 237 232 226 205 196 175 163 154 154 111 133 172 176 203 237 219 190 201 157
328 331 335 342 344 345 347 348 351 349 344 339 336 334 334 332 329 326 327 324 317 303 292 289 266 277 248 243 218 212 207 190 178 171 150 160 129 172 175 197 229 210 220 222 224 191 206
315 310 315 324 326 328 333 336 336 340 344 342 338 334 334 333 330 330 331 344 350 349 325 268 276 247 275 235 224 213 203 192 172 188 208 177 207 211 208 212 242 186 220 228 207 171 203
298 306 306 302 311 316 322 324 322 326 329 334 337 336 336 334 334 338 347 10 356 309 302 285 261 251 252 243 266 227 201 187 192 214 160 188 234 236 122 193 200 204 227 235 186 167 214
300 300 301 299 299 301 304 306 309 315 322 322 328 332 336 337 336 347 352 7 353 341 279 292 252 253 247 240 248 222 198 197 209 210 208 229 275 167 179 178 199 220 228 225 251 167 233
293 295 296 297 299 300 299 296 294 300 308 310 315 321 328 338 350 335 343 346 349 340 285 236 168 186 164 227 258 211 199 202 195 239 207 245 194 177 190 211 203 227 216 216 191 201 249
291 295 297 299 299 299 300 301 302 301 304 305 306 313 323 338 332 337 331 336 347 356 308 72 166 175 160 151 322 234 205 219 237 189 194 218 192 188 209 219 188 229 150 187 201 228 272
288 289 288 291 293 295 297 296 294 299 303 303 304 308 315 322 325 331 341 339 25 180 246 277 164 178 166 184 173 215 251 233 188 198 230 265 313 237 258 100 189 140 113 98 115 210 245
290 291 291 290 291 293 295 296 291 293 294 294 298 301 305 308 310 315 319 312 235 217 327 277 289 219 258 201 205 184 183 207 213 187 226 202 213 183 176 138 126 200 168 193 215 208 249
297 294 295 294 293 294 292 293 292 290 274 283 286 297 297 298 300 304 266 8 215 243 257 95 160 188 225 179 220 196 199 229 225 235 178 213 244 181 183 223 204 198 212 208 231 216 227
309 303 302 300 300 300 298 294 290 290 294 296 286 284 286 288 286 274 171 219 213 206 267 284 254 238 234 218 227 197 223 245 220 196 211 203 235 178 196 173 188 179 218 298 288 136 269
311 308 303 302 306 306 302 300 299 294 288 279 285 276 274 282 272 209 170 225 242 254 310 278 276 257 272 276 214 207 191 208 234 199 217 231 258 188 155 173 204 237 146 180 217 234 241
299 302 304 306 304 299 303 304 299 296 290 283 275 275 252 243 210 178 222 219 239 247 245 239 266 274 269 281 222 239 255 257 226 196 205 218 222 139 162 209 196 176 199 221 271 234 256
289 294 298 300 300 302 294 295 301 298 288 276 258 253 224 192 129 243 197 196 260 246 259 243 258 256 264 266 278 269 259 247 16 171 186 216 261 239 208 144 327 247 225 196 210 200 236
287 285 286 288 291 297 304 288 291 301 288 273 254 245 210 202 237 231 247 256 238 243 244 187 254 233 284 264 245 231 257 242 36 296 4 282 228 241 216 208 145 216 214 235 255 339 237
280 285 279 280 285 291 297 295 276 286 286 249 260 216 168 212 260 286 256 219 220 231 243 252 245 263 253 246 238 263 249 219 137 164 341 19 293 255 253 267 134 205 204 208 201 229 247
279 280 282 280 279 282 288 296 270 270 277 242 232 236 220 187 218 209 181 252 221 265 228 199 234 219 240 259 251 245 254 255 256 230 167 168 245 269 310 314 298 291 239 209 209 226 220
277 272 277 279 277 278 278 284 282 261 260 242 250 243 242 259 156 179 194 199 260 264 221 244 240 278 270 241 251 286 298 241 238 159 208 161 259 257 272 242 3 296 270 239 235 247 250
281 278 272 276 277 272 272 278 283 249 247 243 244 249 261 255 192 193 217 234 236 211 232 252 277 291 281 274 264 276 275 264 248 191 185 182 212 214 254 252 300 277 245 231 216 228 229
281 285 273 271 275 272 269 268 274 252 240 249 245 250 241 251 237 238 251 231 246 264 258 268 279 264 284 301 304 285 273 261 230 217 192 187 196 201 263 139 224 281 47 9 247 270 233
281 282 279 268 273 271 268 261 271 270 237 246 247 241 243 257 230 235 244 248 274 278 266 269 268 259 280 295 288 292 246 254 235 222 190 243 182 206 229 216 307 247 178 173 190 240 326
286 281 279 270 269 272 267 256 265 268 245 249 247 246 240 248 238 261 266 232 253 243 255 225 261 265 237 247 240 248 257 287 235 224 216 180 173 218 162 248 235 66 104 131 220 257 141
282 284 274 272 269 266 259 257 264 264 255 250 249 240 227 232 241 231 240 232 240 272 282 255 241 216 203 223 245 256 252 318 271 257 161 172 190 213 207 236 282 76 106 100 219 10 141
278 287 279 276 264 260 253 259 267 268 256 258 259 229 217 225 243 232 227 222 250 248 257 307 280 193 198 232 251 259 277 348 292 8 208 214 188 195 169 212 248 15 109 262 345 24 121
278 284 283 272 261 259 260 263 262 262 248 242 241 240 235 242 245 236 239 246 250 245 254 237 283 202 225 242 240 282 271 236 273 281 357 294 356 325 300 27 74 40 30 13 12 128 126